Flag for U.S.A. Weather past 2 weeks in Portland, Maine, U.S.A.

Now
72 °F

Clear.


Feels Like: 72 °F
Forecast: 67 / 77 °F
Wind: No wind

Location: Portland - Portland International Jetport

Current Time: Jul 29, 2015 at 10:42:04 PM

Latest Report: Jul 29, 2015 at 9:51 PM


Visibility: 10 mi

Pressure: 29.87 "Hg

Humidity: 81%

Dew point: 66 °F

Location of PortlandLocation

Historic Weather in Portland — Graph

°F

Portland temperature yesterday

Maximum temperature yesterday: 83 °F (at 2:51 PM)
Minimum temperature yesterday: 63 °F (at 12:58 AM)
Average temperature yesterday: 71 °F

Past Weeks' High & Low Weather Summary

 TemperatureHumidityPressure
High86 °F (Jul 29, 10:51 AM)100% (Jul 15, 2:51 AM)30.13 "Hg (Jul 15, 2:51 AM)
Low54 °F (Jul 17, 3:51 AM)37% (Jul 16, 3:51 PM)29.56 "Hg (Jul 22, 12:51 AM)
Average67 °F81%29.86 "Hg
* Reported Jul 14 8:51 PM — Jul 29 8:51 PM, Portland, Weather by CustomWeather, © 2015

Note: Actual official high and low records may vary slightly from our data, if they occured in-between our weather recording intervals... More about our weather records

Advertising

Portland weather history for previous 24 hours

 ConditionsComfort  
Time TempWeatherWind HumidityBarometerVisibility
8:51 PM
Wed, Jul 29
73 °FScattered clouds.No wind76%29.86 "Hg10 mi
7:51 PM76 °FScattered clouds.No wind69%29.86 "Hg10 mi
6:51 PM77 °FBroken clouds.6 mph66%29.86 "Hg10 mi
5:51 PM80 °FBroken clouds.9 mph62%29.86 "Hg10 mi
4:51 PM81 °FBroken clouds.15 mph60%29.88 "Hg10 mi
3:51 PM84 °FBroken clouds.14 mph59%29.87 "Hg10 mi
2:51 PM84 °FPartly sunny.9 mph53%29.89 "Hg10 mi
1:51 PM82 °FBroken clouds.10 mph53%29.90 "Hg10 mi
12:51 PM84 °FBroken clouds.12 mph51%29.91 "Hg10 mi
11:51 AM85 °FScattered clouds.9 mph57%29.92 "Hg10 mi
10:51 AM86 °FScattered clouds.No wind53%29.93 "Hg10 mi
9:51 AM82 °FPassing clouds.3 mph63%29.93 "Hg10 mi
8:51 AM79 °FPassing clouds.No wind65%29.94 "Hg10 mi
7:51 AM74 °FScattered clouds.No wind82%29.94 "Hg10 mi
6:51 AM69 °FPassing clouds.No wind90%29.94 "Hg10 mi
5:51 AM65 °FPassing clouds.No wind97%29.94 "Hg9 mi
4:51 AM65 °FClear.3 mph97%29.93 "Hg10 mi
3:51 AM65 °FClear.3 mph97%29.93 "Hg10 mi
2:51 AM66 °FClear.No wind93%29.93 "Hg10 mi
1:51 AM65 °FClear.3 mph97%29.93 "Hg10 mi
12:51 AM68 °FClear.No wind93%29.94 "Hg10 mi
11:51 PM
Tue, Jul 28
69 °FClear.3 mph87%29.94 "Hg10 mi
10:51 PM70 °FClear.No wind84%29.94 "Hg10 mi
Weather by CustomWeather, © 2015

See weather overviewHow to use our weather pages